Location: Dugenta
(41.1333°N, 14.4500°E)
Time: 13:15:50
(UTC+00:00)

SeaSat 1 - Pass Details

Date: 03 March 2021
Orbit: 744 x 747 km, 108.0° (Epoch: 20 April)

Event Time Altitude Azimuth Distance (km) Brightness Sun altitude
Rises 17:56:32 0° 27° (NNE) 3,198 5.5 -12.3°
Reaches altitude 10° 17:58:49 10° 29° (NNE) 2,270 4.7 -12.7°
Maximum altitude 18:03:46 76° 115° (ESE) 773 2.4 -13.6°
Drops below altitude 10° 18:08:40 10° 202° (SSW) 2,257 5.2 -14.6°
Sets 18:10:56 0° 203° (SSW) 3,177 6.0 -15.0°
